| time (UTC) | temp C | wind direction | speed KPH | gust KPH | rain 1hr cm | rain 24hr cm | rain mn cm | humidity % | barometer mb |
| 20260510184125 | 25 | 207 | 0.0 | 12.9 | 0.00 | 0.00 | 0.00 | 49 | 1012.5 |
| 20260510183737 | 25 | 178 | 0.0 | 9.7 | 0.00 | 0.00 | 0.00 | 50 | 1012.5 |
| 20260510183536 | 25 | 245 | 0.0 | 9.7 | 0.00 | 0.00 | 0.00 | 50 | 1012.5 |
| 20260510183332 | 25 | 209 | 0.0 | 9.7 | 0.00 | 0.00 | 0.00 | 52 | 1012.6 |
| 20260510183124 | 25 | 200 | 1.6 | 9.7 | 0.00 | 0.00 | 0.00 | 50 | 1012.6 |
| 20260510182552 | 25 | 171 | 1.6 | 12.9 | 0.00 | 0.00 | 0.00 | 50 | 1012.6 |
| 20260510182344 | 25 | 157 | 1.6 | 12.9 | 0.00 | 0.00 | 0.00 | 49 | 1012.6 |
| 20260510182139 | 25 | 279 | 1.6 | 9.7 | 0.00 | 0.00 | 0.00 | 51 | 1012.6 |
| 20260510181936 | 25 | 277 | 0.0 | 9.7 | 0.00 | 0.00 | 0.00 | 53 | 1012.6 |
| 20260510181540 | 25 | 191 | 1.6 | 8.0 | 0.00 | 0.00 | 0.00 | 52 | 1012.5 |
| 20260510181335 | 25 | 163 | 1.6 | 8.0 | 0.00 | 0.00 | 0.00 | 52 | 1012.6 |
| 20260510181134 | 25 | 227 | 1.6 | 8.0 | 0.00 | 0.00 | 0.00 | 52 | 1012.5 |
| 20260510180925 | 25 | 290 | 1.6 | 8.0 | 0.00 | 0.00 | 0.00 | 52 | 1012.5 |
| 20260510180714 | 24 | 283 | 1.6 | 6.4 | 0.00 | 0.00 | 0.00 | 54 | 1012.5 |
| 20260510180512 | 24 | 281 | 1.6 | 0.0 | 0.00 | 0.00 | 0.00 | 56 | 1012.5 |
| 20260510180259 | 23 | 281 | 1.6 | 9.7 | 0.00 | 0.00 | 0.00 | 56 | 1012.5 |
| 20260510180047 | 23 | 281 | 1.6 | 9.7 | 0.00 | 0.00 | 0.00 | 57 | 1012.5 |
| 20260510175845 | 22 | 288 | 0.0 | 9.7 | 0.00 | 0.00 | 0.00 | 58 | 1012.5 |
| 20260510175449 | 22 | 272 | 0.0 | 0.0 | 0.00 | 0.00 | 0.00 | 60 | 1012.5 |
| 20260510175055 | 22 | 272 | 0.0 | 0.0 | 0.00 | 0.00 | 0.00 | 61 | 1012.5 |
| 20260510174848 | 22 | 272 | 1.6 | 6.4 | 0.00 | 0.00 | 0.00 | 63 | 1012.5 |
| 20260510174641 | 22 | 272 | 0.0 | 6.4 | 0.00 | 0.00 | 0.00 | 63 | 1012.4 |
| 20260510174434 | 21 | 251 | 0.0 | 4.8 | 0.00 | 0.00 | 0.00 | 63 | 1012.4 |
| 20260510174229 | 21 | 251 | 0.0 | 4.8 | 0.00 | 0.00 | 0.00 | 63 | 1012.5 |
| 20260510174026 | 21 | 251 | 0.0 | 4.8 | 0.00 | 0.00 | 0.00 | 63 | 1012.5 |
| 20260510173824 | 21 | 198 | 0.0 | 3.2 | 0.00 | 0.00 | 0.00 | 64 | 1012.4 |
| 20260510173436 | 21 | 184 | 0.0 | 4.8 | 0.00 | 0.00 | 0.00 | 64 | 1012.4 |
| 20260510173231 | 21 | 185 | 0.0 | 4.8 | 0.00 | 0.00 | 0.00 | 65 | 1012.5 |
| 20260510173019 | 21 | 184 | 0.0 | 4.8 | 0.00 | 0.00 | 0.00 | 65 | 1012.5 |
| 20260510172807 | 21 | 184 | 0.0 | 4.8 | 0.00 | 0.00 | 0.00 | 66 | 1012.5 |
| 20260510172558 | 20 | 236 | 0.0 | 4.8 | 0.00 | 0.00 | 0.00 | 66 | 1012.5 |
| 20260510172354 | 20 | 187 | 0.0 | 4.8 | 0.00 | 0.00 | 0.00 | 67 | 1012.5 |
| 20260510171959 | 20 | 242 | 0.0 | 4.8 | 0.00 | 0.00 | 0.00 | 69 | 1012.4 |
| 20260510171607 | 20 | 207 | 0.0 | 4.8 | 0.00 | 0.00 | 0.00 | 69 | 1012.4 |
| 20260510171215 | 19 | 186 | 0.0 | 8.0 | 0.00 | 0.00 | 0.00 | 70 | 1012.5 |
| 20260510171004 | 19 | 261 | 0.0 | 8.0 | 0.00 | 0.00 | 0.00 | 71 | 1012.5 |
| 20260510170801 | 18 | 261 | 0.0 | 8.0 | 0.00 | 0.00 | 0.00 | 73 | 1012.4 |
| 20260510170556 | 18 | 261 | 0.0 | 8.0 | 0.00 | 0.00 | 0.00 | 74 | 1012.4 |
| 20260510170355 | 18 | 261 | 1.6 | 8.0 | 0.00 | 0.00 | 0.00 | 75 | 1012.5 |
| 20260510170145 | 18 | 261 | 1.6 | 8.0 | 0.00 | 0.00 | 0.00 | 76 | 1012.5 |
| 20260510165749 | 17 | 261 | 0.0 | 8.0 | 0.00 | 0.00 | 0.00 | 79 | 1012.5 |
| 20260510165537 | 17 | 259 | 0.0 | 8.0 | 0.00 | 0.00 | 0.00 | 82 | 1012.5 |
| 20260510165334 | 17 | 252 | 0.0 | 4.8 | 0.00 | 0.00 | 0.00 | 85 | 1012.5 |
| 20260510165132 | 17 | 252 | 0.0 | 1.6 | 0.00 | 0.00 | 0.00 | 86 | 1012.5 |
| 20260510164925 | 17 | 252 | 0.0 | 0.0 | 0.00 | 0.00 | 0.00 | 86 | 1012.4 |
| 20260510164713 | 17 | 252 | 0.0 | 0.0 | 0.00 | 0.00 | 0.00 | 87 | 1012.4 |
| 20260510163950 | 16 | 252 | 0.0 | 0.0 | 0.00 | 0.00 | 0.00 | 88 | 1012.5 |
| 20260510163740 | 16 | 252 | 0.0 | 0.0 | 0.00 | 0.00 | 0.00 | 88 | 1012.4 |
| 20260510163527 | 16 | 252 | 0.0 | 0.0 | 0.00 | 0.00 | 0.00 | 88 | 1012.5 |
| 20260510163319 | 16 | 252 | 0.0 | 0.0 | 0.00 | 0.00 | 0.00 | 89 | 1012.5 |
| 20260510163116 | 16 | 252 | 0.0 | 0.0 | 0.00 | 0.00 | 0.00 | 89 | 1012.5 |
| 20260510162914 | 16 | 252 | 0.0 | 0.0 | 0.00 | 0.00 | 0.00 | 89 | 1012.5 |
| 20260510162707 | 16 | 252 | 0.0 | 0.0 | 0.00 | 0.00 | 0.00 | 89 | 1012.5 |
| 20260510162130 | 15 | 252 | 0.0 | 0.0 | 0.00 | 0.00 | 0.00 | 90 | 1012.5 |
| 20260510161920 | 15 | 252 | 0.0 | 0.0 | 0.00 | 0.00 | 0.00 | 90 | 1012.5 |
| 20260510161712 | 15 | 252 | 0.0 | 0.0 | 0.00 | 0.00 | 0.00 | 91 | 1012.5 |
| 20260510161510 | 15 | 252 | 0.0 | 0.0 | 0.00 | 0.00 | 0.00 | 91 | 1012.4 |
| 20260510161307 | 15 | 252 | 0.0 | 0.0 | 0.00 | 0.00 | 0.00 | 90 | 1012.5 |
| 20260510160914 | 15 | 252 | 0.0 | 0.0 | 0.00 | 0.00 | 0.00 | 90 | 1012.5 |
| 20260510160710 | 15 | 252 | 0.0 | 0.0 | 0.00 | 0.00 | 0.00 | 90 | 1012.4 |
| 20260510160132 | 14 | 252 | 0.0 | 0.0 | 0.00 | 0.00 | 0.00 | 90 | 1012.4 |
| 20260510155735 | 14 | 252 | 0.0 | 0.0 | 0.00 | 0.00 | 0.00 | 90 | 1012.4 |
| 20260510155529 | 13 | 252 | 0.0 | 0.0 | 0.00 | 0.00 | 0.00 | 90 | 1012.4 |
| 20260510155324 | 13 | 252 | 0.0 | 0.0 | 0.00 | 0.00 | 0.00 | 90 | 1012.4 |
| 20260510155115 | 13 | 252 | 0.0 | 0.0 | 0.00 | 0.00 | 0.00 | 90 | 1012.4 |
| 20260510154911 | 13 | 252 | 0.0 | 0.0 | 0.00 | 0.00 | 0.00 | 90 | 1012.4 |
| 20260510154706 | 13 | 252 | 0.0 | 0.0 | 0.00 | 0.00 | 0.00 | 90 | 1012.4 |
| 20260510154505 | 13 | 252 | 0.0 | 0.0 | 0.00 | 0.00 | 0.00 | 90 | 1012.4 |
| 20260510154256 | 13 | 252 | 0.0 | 0.0 | 0.00 | 0.00 | 0.00 | 89 | 1012.3 |
| 20260510154045 | 13 | 252 | 0.0 | 0.0 | 0.00 | 0.00 | 0.00 | 89 | 1012.4 |
| 20260510153837 | 13 | 252 | 0.0 | 0.0 | 0.00 | 0.00 | 0.00 | 89 | 1012.4 |
| 20260510153634 | 12 | 252 | 0.0 | 0.0 | 0.00 | 0.00 | 0.00 | 89 | 1012.3 |
| 20260510153433 | 12 | 252 | 0.0 | 0.0 | 0.00 | 0.00 | 0.00 | 89 | 1012.3 |
| 20260510152851 | 12 | 252 | 0.0 | 0.0 | 0.00 | 0.00 | 0.00 | 89 | 1012.3 |
| 20260510152637 | 12 | 252 | 0.0 | 0.0 | 0.00 | 0.00 | 0.00 | 89 | 1012.3 |
| 20260510152428 | 12 | 252 | 0.0 | 0.0 | 0.00 | 0.00 | 0.00 | 89 | 1012.3 |
| 20260510152223 | 12 | 252 | 0.0 | 0.0 | 0.00 | 0.00 | 0.00 | 88 | 1012.3 |
| 20260510152021 | 12 | 252 | 0.0 | 0.0 | 0.00 | 0.00 | 0.00 | 88 | 1012.3 |
| 20260510151624 | 11 | 252 | 0.0 | 0.0 | 0.00 | 0.00 | 0.00 | 87 | 1012.4 |
| 20260510151413 | 11 | 252 | 0.0 | 0.0 | 0.00 | 0.00 | 0.00 | 87 | 1012.3 |
| 20260510151209 | 11 | 252 | 0.0 | 0.0 | 0.00 | 0.00 | 0.00 | 87 | 1012.3 |
| 20260510151000 | 11 | 252 | 0.0 | 0.0 | 0.00 | 0.00 | 0.00 | 87 | 1012.3 |
| 20260510150756 | 11 | 252 | 0.0 | 0.0 | 0.00 | 0.00 | 0.00 | 87 | 1012.4 |
| 20260510150550 | 11 | 252 | 0.0 | 0.0 | 0.00 | 0.00 | 0.00 | 87 | 1012.3 |
| 20260510150338 | 11 | 252 | 0.0 | 0.0 | 0.00 | 0.00 | 0.00 | 87 | 1012.3 |
| 20260510150131 | 11 | 252 | 0.0 | 0.0 | 0.00 | 0.00 | 0.00 | 87 | 1012.4 |
| 20260510145734 | 11 | 252 | 0.0 | 0.0 | 0.00 | 0.00 | 0.00 | 87 | 1012.3 |
| 20260510145529 | 11 | 252 | 0.0 | 0.0 | 0.00 | 0.00 | 0.00 | 87 | 1012.4 |
| 20260510145325 | 11 | 252 | 0.0 | 0.0 | 0.00 | 0.00 | 0.00 | 87 | 1012.3 |
| 20260510145123 | 11 | 252 | 0.0 | 0.0 | 0.00 | 0.00 | 0.00 | 87 | 1012.3 |
| 20260510144913 | 11 | 252 | 0.0 | 0.0 | 0.00 | 0.00 | 0.00 | 87 | 1012.3 |
| 20260510144709 | 11 | 252 | 0.0 | 0.0 | 0.00 | 0.00 | 0.00 | 87 | 1012.3 |
| 20260510144500 | 11 | 252 | 0.0 | 0.0 | 0.00 | 0.00 | 0.00 | 87 | 1012.3 |
| 20260510144248 | 11 | 252 | 0.0 | 0.0 | 0.00 | 0.00 | 0.00 | 86 | 1012.3 |
| 20260510143850 | 11 | 252 | 0.0 | 0.0 | 0.00 | 0.00 | 0.00 | 86 | 1012.3 |
| 20260510143640 | 11 | 252 | 0.0 | 0.0 | 0.00 | 0.00 | 0.00 | 86 | 1012.3 |
| 20260510143439 | 11 | 252 | 0.0 | 0.0 | 0.00 | 0.00 | 0.00 | 86 | 1012.3 |
| 20260510143228 | 11 | 252 | 0.0 | 0.0 | 0.00 | 0.00 | 0.00 | 86 | 1012.3 |
| 20260510143018 | 11 | 252 | 0.0 | 0.0 | 0.00 | 0.00 | 0.00 | 86 | 1012.3 |
| 20260510142807 | 11 | 252 | 0.0 | 0.0 | 0.00 | 0.00 | 0.00 | 86 | 1012.3 |
| 20260510142605 | 11 | 252 | 0.0 | 0.0 | 0.00 | 0.00 | 0.00 | 86 | 1012.2 |
| 20260510142354 | 11 | 252 | 0.0 | 0.0 | 0.00 | 0.00 | 0.00 | 86 | 1012.3 |
| 20260510142149 | 11 | 252 | 0.0 | 0.0 | 0.00 | 0.00 | 0.00 | 86 | 1012.2 |
| 20260510141941 | 11 | 252 | 0.0 | 0.0 | 0.00 | 0.00 | 0.00 | 86 | 1012.2 |
| 20260510141733 | 11 | 252 | 0.0 | 0.0 | 0.00 | 0.00 | 0.00 | 86 | 1012.3 |
| 20260510141337 | 11 | 252 | 0.0 | 0.0 | 0.00 | 0.00 | 0.00 | 86 | 1012.3 |
| 20260510141134 | 11 | 252 | 0.0 | 0.0 | 0.00 | 0.00 | 0.00 | 86 | 1012.2 |
| 20260510140926 | 11 | 252 | 0.0 | 0.0 | 0.00 | 0.00 | 0.00 | 86 | 1012.2 |
| 20260510140721 | 11 | 252 | 0.0 | 0.0 | 0.00 | 0.00 | 0.00 | 86 | 1012.2 |
| 20260510140513 | 11 | 252 | 0.0 | 0.0 | 0.00 | 0.00 | 0.00 | 86 | 1012.2 |
| 20260510140308 | 11 | 252 | 0.0 | 0.0 | 0.00 | 0.00 | 0.00 | 86 | 1012.1 |
| 20260510140059 | 11 | 252 | 0.0 | 0.0 | 0.00 | 0.00 | 0.00 | 86 | 1012.1 |
| 20260510135855 | 11 | 252 | 0.0 | 0.0 | 0.00 | 0.00 | 0.00 | 86 | 1012.1 |
| 20260510135650 | 11 | 252 | 0.0 | 0.0 | 0.00 | 0.00 | 0.00 | 86 | 1012.1 |
| 20260510135253 | 11 | 252 | 0.0 | 0.0 | 0.00 | 0.00 | 0.00 | 86 | 1012.0 |
| 20260510135046 | 11 | 252 | 0.0 | 0.0 | 0.00 | 0.00 | 0.00 | 86 | 1012.1 |
| 20260510134835 | 11 | 252 | 0.0 | 0.0 | 0.00 | 0.00 | 0.00 | 86 | 1012.0 |
| 20260510134444 | 11 | 252 | 0.0 | 0.0 | 0.00 | 0.00 | 0.00 | 86 | 1012.0 |
| 20260510134239 | 11 | 252 | 0.0 | 0.0 | 0.00 | 0.00 | 0.00 | 85 | 1012.0 |
| 20260510134037 | 11 | 252 | 0.0 | 0.0 | 0.00 | 0.00 | 0.00 | 85 | 1011.9 |
| 20260510133832 | 11 | 252 | 0.0 | 0.0 | 0.00 | 0.00 | 0.00 | 85 | 1011.9 |
| 20260510133620 | 11 | 252 | 0.0 | 0.0 | 0.00 | 0.00 | 0.00 | 85 | 1011.9 |
| 20260510133411 | 11 | 252 | 0.0 | 0.0 | 0.00 | 0.00 | 0.00 | 85 | 1011.9 |
| 20260510133158 | 11 | 252 | 0.0 | 0.0 | 0.00 | 0.00 | 0.00 | 85 | 1011.7 |
| 20260510132950 | 11 | 252 | 0.0 | 0.0 | 0.00 | 0.00 | 0.00 | 85 | 1011.7 |
| 20260510132745 | 11 | 252 | 0.0 | 0.0 | 0.00 | 0.00 | 0.00 | 85 | 1011.6 |
| 20260510132543 | 11 | 252 | 0.0 | 0.0 | 0.00 | 0.00 | 0.00 | 85 | 1011.7 |
| 20260510132339 | 11 | 252 | 0.0 | 0.0 | 0.00 | 0.00 | 0.00 | 85 | 1011.7 |
| 20260510132128 | 11 | 252 | 0.0 | 0.0 | 0.00 | 0.00 | 0.00 | 85 | 1011.6 |
| 20260510131627 | 11 | 252 | 0.0 | 0.0 | 0.00 | 0.00 | 0.00 | 86 | 1011.6 |
| 20260510131419 | 11 | 252 | 0.0 | 0.0 | 0.00 | 0.00 | 0.00 | 85 | 1011.6 |
| 20260510131211 | 11 | 252 | 0.0 | 0.0 | 0.00 | 0.00 | 0.00 | 85 | 1011.6 |
| 20260510131007 | 11 | 252 | 0.0 | 0.0 | 0.00 | 0.00 | 0.00 | 85 | 1011.6 |
| 20260510130614 | 11 | 252 | 0.0 | 0.0 | 0.00 | 0.00 | 0.00 | 85 | 1011.7 |
| 20260510130413 | 11 | 252 | 0.0 | 0.0 | 0.00 | 0.00 | 0.00 | 85 | 1011.7 |
| 20260510130021 | 11 | 252 | 0.0 | 0.0 | 0.00 | 0.00 | 0.00 | 85 | 1011.7 |
| 20260510125819 | 11 | 252 | 0.0 | 0.0 | 0.00 | 0.00 | 0.00 | 85 | 1011.7 |
| 20260510125616 | 11 | 252 | 0.0 | 0.0 | 0.00 | 0.00 | 0.00 | 85 | 1011.7 |
| 20260510125219 | 11 | 252 | 0.0 | 0.0 | 0.00 | 0.00 | 0.00 | 85 | 1011.7 |
| 20260510125006 | 11 | 252 | 0.0 | 0.0 | 0.00 | 0.00 | 0.00 | 85 | 1011.7 |
| 20260510124804 | 11 | 252 | 0.0 | 0.0 | 0.00 | 0.00 | 0.00 | 85 | 1011.6 |
| 20260510124553 | 11 | 252 | 0.0 | 0.0 | 0.00 | 0.00 | 0.00 | 85 | 1011.6 |
| 20260510124346 | 11 | 252 | 0.0 | 0.0 | 0.00 | 0.00 | 0.00 | 85 | 1011.7 |
| 20260510124140 | 11 | 252 | 0.0 | 0.0 | 0.00 | 0.00 | 0.00 | 85 | 1011.6 |
| 20260510123935 | 11 | 252 | 0.0 | 0.0 | 0.00 | 0.00 | 0.00 | 85 | 1011.7 |
| 20260510123728 | 11 | 252 | 0.0 | 0.0 | 0.00 | 0.00 | 0.00 | 85 | 1011.7 |
| 20260510123524 | 11 | 252 | 0.0 | 0.0 | 0.00 | 0.00 | 0.00 | 85 | 1011.7 |
| 20260510123320 | 11 | 252 | 0.0 | 0.0 | 0.00 | 0.00 | 0.00 | 85 | 1011.8 |
| 20260510123118 | 11 | 252 | 0.0 | 0.0 | 0.00 | 0.00 | 0.00 | 85 | 1011.7 |
| 20260510122907 | 11 | 252 | 0.0 | 0.0 | 0.00 | 0.00 | 0.00 | 85 | 1011.8 |
| 20260510122654 | 11 | 252 | 0.0 | 0.0 | 0.00 | 0.00 | 0.00 | 85 | 1011.7 |
| 20260510122301 | 11 | 252 | 0.0 | 0.0 | 0.00 | 0.00 | 0.00 | 85 | 1011.7 |
| 20260510122057 | 11 | 252 | 0.0 | 0.0 | 0.00 | 0.00 | 0.00 | 85 | 1011.7 |
| 20260510121850 | 11 | 252 | 0.0 | 0.0 | 0.00 | 0.00 | 0.00 | 85 | 1011.7 |
| 20260510121645 | 11 | 252 | 0.0 | 0.0 | 0.00 | 0.00 | 0.00 | 85 | 1011.7 |
| 20260510121441 | 11 | 252 | 0.0 | 0.0 | 0.00 | 0.00 | 0.00 | 85 | 1011.7 |
| 20260510121238 | 11 | 252 | 0.0 | 0.0 | 0.00 | 0.00 | 0.00 | 85 | 1011.7 |
| 20260510121032 | 11 | 252 | 0.0 | 0.0 | 0.00 | 0.00 | 0.00 | 85 | 1011.7 |
| 20260510120826 | 11 | 252 | 0.0 | 0.0 | 0.00 | 0.00 | 0.00 | 85 | 1011.7 |
| 20260510120619 | 11 | 252 | 0.0 | 0.0 | 0.00 | 0.00 | 0.00 | 85 | 1011.7 |
| 20260510120414 | 11 | 252 | 0.0 | 0.0 | 0.00 | 0.00 | 0.00 | 85 | 1011.7 |
| 20260510120205 | 11 | 252 | 0.0 | 0.0 | 0.00 | 0.00 | 0.00 | 85 | 1011.7 |
| 20260510115953 | 11 | 252 | 0.0 | 0.0 | 0.00 | 0.00 | 0.00 | 85 | 1011.8 |
| 20260510115740 | 11 | 252 | 0.0 | 0.0 | 0.00 | 0.00 | 0.00 | 85 | 1011.8 |
| 20260510115535 | 11 | 252 | 0.0 | 0.0 | 0.00 | 0.00 | 0.00 | 85 | 1011.8 |
| 20260510115322 | 11 | 252 | 0.0 | 0.0 | 0.00 | 0.00 | 0.00 | 85 | 1011.9 |
| 20260510115117 | 11 | 252 | 0.0 | 0.0 | 0.00 | 0.00 | 0.00 | 85 | 1011.8 |
| 20260510114908 | 11 | 252 | 0.0 | 0.0 | 0.00 | 0.00 | 0.00 | 85 | 1011.9 |
| 20260510114659 | 11 | 252 | 0.0 | 0.0 | 0.00 | 0.00 | 0.00 | 85 | 1011.9 |
| 20260510114448 | 11 | 252 | 0.0 | 0.0 | 0.00 | 0.00 | 0.00 | 85 | 1011.9 |
| 20260510114245 | 11 | 252 | 0.0 | 0.0 | 0.00 | 0.00 | 0.00 | 85 | 1011.8 |
| 20260510114036 | 11 | 252 | 0.0 | 0.0 | 0.00 | 0.00 | 0.00 | 85 | 1011.9 |
| 20260510113826 | 11 | 252 | 0.0 | 0.0 | 0.00 | 0.00 | 0.00 | 84 | 1011.8 |
| 20260510113242 | 11 | 252 | 0.0 | 0.0 | 0.00 | 0.00 | 0.00 | 84 | 1011.9 |
| 20260510113029 | 11 | 252 | 0.0 | 0.0 | 0.00 | 0.00 | 0.00 | 84 | 1011.8 |
| 20260510112818 | 11 | 252 | 0.0 | 0.0 | 0.00 | 0.00 | 0.00 | 84 | 1011.8 |
| 20260510112425 | 11 | 252 | 0.0 | 0.0 | 0.00 | 0.00 | 0.00 | 84 | 1011.9 |
| 20260510112213 | 11 | 252 | 0.0 | 0.0 | 0.00 | 0.00 | 0.00 | 84 | 1011.8 |
| 20260510112001 | 11 | 252 | 0.0 | 0.0 | 0.00 | 0.00 | 0.00 | 84 | 1011.8 |
| 20260510111755 | 11 | 252 | 0.0 | 0.0 | 0.00 | 0.00 | 0.00 | 84 | 1011.9 |
| 20260510111544 | 11 | 252 | 0.0 | 0.0 | 0.00 | 0.00 | 0.00 | 84 | 1011.8 |
| 20260510111331 | 11 | 252 | 0.0 | 0.0 | 0.00 | 0.00 | 0.00 | 84 | 1011.8 |
| 20260510110937 | 11 | 252 | 0.0 | 0.0 | 0.00 | 0.00 | 0.00 | 84 | 1011.7 |
| 20260510110734 | 11 | 252 | 0.0 | 0.0 | 0.00 | 0.00 | 0.00 | 84 | 1011.8 |
| 20260510110528 | 11 | 252 | 0.0 | 0.0 | 0.00 | 0.00 | 0.00 | 84 | 1011.7 |
| 20260510110323 | 11 | 252 | 0.0 | 0.0 | 0.00 | 0.00 | 0.00 | 84 | 1011.7 |
| 20260510110116 | 11 | 252 | 0.0 | 0.0 | 0.00 | 0.00 | 0.00 | 84 | 1011.7 |
| 20260510105909 | 11 | 252 | 0.0 | 0.0 | 0.00 | 0.00 | 0.00 | 84 | 1011.7 |
| 20260510105700 | 11 | 252 | 0.0 | 0.0 | 0.00 | 0.00 | 0.00 | 84 | 1011.7 |
| 20260510105452 | 11 | 252 | 0.0 | 0.0 | 0.00 | 0.00 | 0.00 | 84 | 1011.7 |
| 20260510105239 | 11 | 252 | 0.0 | 0.0 | 0.00 | 0.00 | 0.00 | 84 | 1011.7 |
| 20260510105037 | 11 | 252 | 0.0 | 0.0 | 0.00 | 0.00 | 0.00 | 84 | 1011.8 |
| 20260510104830 | 11 | 252 | 0.0 | 0.0 | 0.00 | 0.00 | 0.00 | 84 | 1011.7 |
| 20260510104618 | 11 | 252 | 0.0 | 0.0 | 0.00 | 0.00 | 0.00 | 84 | 1011.7 |
| 20260510104410 | 11 | 252 | 0.0 | 0.0 | 0.00 | 0.00 | 0.00 | 84 | 1011.7 |
| 20260510104206 | 11 | 252 | 0.0 | 0.0 | 0.00 | 0.00 | 0.00 | 84 | 1011.7 |
| 20260510104001 | 11 | 252 | 0.0 | 0.0 | 0.00 | 0.00 | 0.00 | 84 | 1011.7 |
| 20260510103756 | 11 | 252 | 0.0 | 0.0 | 0.00 | 0.00 | 0.00 | 84 | 1011.7 |
| 20260510103545 | 11 | 252 | 0.0 | 0.0 | 0.00 | 0.00 | 0.00 | 83 | 1011.8 |
| 20260510103340 | 11 | 252 | 0.0 | 0.0 | 0.00 | 0.00 | 0.00 | 83 | 1011.8 |
| 20260510103136 | 11 | 252 | 0.0 | 0.0 | 0.00 | 0.00 | 0.00 | 83 | 1011.8 |
| 20260510102932 | 11 | 252 | 0.0 | 0.0 | 0.00 | 0.00 | 0.00 | 83 | 1011.8 |
| 20260510102538 | 11 | 252 | 0.0 | 0.0 | 0.00 | 0.00 | 0.00 | 83 | 1011.7 |
| 20260510102333 | 11 | 252 | 0.0 | 0.0 | 0.00 | 0.00 | 0.00 | 83 | 1011.7 |
| 20260510102127 | 11 | 252 | 0.0 | 0.0 | 0.00 | 0.00 | 0.00 | 83 | 1011.7 |
| 20260510101915 | 11 | 252 | 0.0 | 0.0 | 0.00 | 0.00 | 0.00 | 83 | 1011.7 |
| 20260510101714 | 11 | 252 | 0.0 | 0.0 | 0.00 | 0.00 | 0.00 | 83 | 1011.7 |
| 20260510101511 | 11 | 252 | 0.0 | 0.0 | 0.00 | 0.00 | 0.00 | 83 | 1011.7 |
| 20260510101309 | 11 | 252 | 0.0 | 0.0 | 0.00 | 0.00 | 0.00 | 83 | 1011.7 |
| 20260510101056 | 11 | 252 | 0.0 | 0.0 | 0.00 | 0.00 | 0.00 | 83 | 1011.7 |
| 20260510100851 | 11 | 252 | 0.0 | 0.0 | 0.00 | 0.00 | 0.00 | 83 | 1011.7 |
| 20260510100458 | 11 | 252 | 0.0 | 0.0 | 0.00 | 0.00 | 0.00 | 83 | 1011.7 |
| 20260510100257 | 11 | 252 | 0.0 | 0.0 | 0.00 | 0.00 | 0.00 | 83 | 1011.7 |
| 20260510095909 | 12 | 252 | 0.0 | 0.0 | 0.00 | 0.00 | 0.00 | 83 | 1011.7 |
| 20260510095656 | 11 | 252 | 0.0 | 0.0 | 0.00 | 0.00 | 0.00 | 83 | 1011.7 |
| 20260510095448 | 12 | 252 | 0.0 | 0.0 | 0.00 | 0.00 | 0.00 | 83 | 1011.7 |
| 20260510095241 | 12 | 252 | 0.0 | 0.0 | 0.00 | 0.00 | 0.00 | 83 | 1011.7 |
| 20260510095028 | 12 | 252 | 0.0 | 0.0 | 0.00 | 0.00 | 0.00 | 83 | 1011.7 |
| 20260510094450 | 12 | 252 | 0.0 | 0.0 | 0.00 | 0.00 | 0.00 | 82 | 1011.7 |
| 20260510094238 | 12 | 252 | 0.0 | 0.0 | 0.00 | 0.00 | 0.00 | 82 | 1011.8 |
| 20260510094028 | 12 | 252 | 0.0 | 0.0 | 0.00 | 0.00 | 0.00 | 82 | 1011.7 |
| 20260510093827 | 12 | 252 | 0.0 | 0.0 | 0.00 | 0.00 | 0.00 | 82 | 1011.7 |
| 20260510093619 | 12 | 252 | 0.0 | 0.0 | 0.00 | 0.00 | 0.00 | 82 | 1011.7 |
| 20260510093406 | 12 | 252 | 0.0 | 0.0 | 0.00 | 0.00 | 0.00 | 82 | 1011.8 |
| 20260510093014 | 12 | 252 | 0.0 | 0.0 | 0.00 | 0.00 | 0.00 | 82 | 1011.7 |
| 20260510092811 | 12 | 252 | 0.0 | 0.0 | 0.00 | 0.00 | 0.00 | 82 | 1011.8 |
| 20260510092604 | 12 | 252 | 0.0 | 0.0 | 0.00 | 0.00 | 0.00 | 82 | 1011.8 |
| 20260510092352 | 12 | 252 | 0.0 | 0.0 | 0.00 | 0.00 | 0.00 | 82 | 1011.8 |
| 20260510092144 | 12 | 252 | 0.0 | 0.0 | 0.00 | 0.00 | 0.00 | 82 | 1011.9 |
| 20260510091748 | 12 | 252 | 0.0 | 0.0 | 0.00 | 0.00 | 0.00 | 82 | 1011.9 |
| 20260510091538 | 12 | 252 | 0.0 | 0.0 | 0.00 | 0.00 | 0.00 | 81 | 1011.9 |
| 20260510091327 | 12 | 252 | 0.0 | 0.0 | 0.00 | 0.00 | 0.00 | 82 | 1011.8 |
| 20260510091115 | 12 | 252 | 0.0 | 0.0 | 0.00 | 0.00 | 0.00 | 82 | 1011.8 |
| 20260510090904 | 12 | 252 | 0.0 | 0.0 | 0.00 | 0.00 | 0.00 | 82 | 1011.7 |
| 20260510090701 | 12 | 252 | 0.0 | 0.0 | 0.00 | 0.00 | 0.00 | 81 | 1011.8 |
| 20260510090459 | 12 | 252 | 0.0 | 0.0 | 0.00 | 0.00 | 0.00 | 81 | 1011.8 |
| 20260510090250 | 12 | 252 | 0.0 | 0.0 | 0.00 | 0.00 | 0.00 | 81 | 1011.7 |
| 20260510090037 | 12 | 252 | 0.0 | 0.0 | 0.00 | 0.00 | 0.00 | 81 | 1011.7 |
| 20260510085827 | 12 | 252 | 0.0 | 0.0 | 0.00 | 0.00 | 0.00 | 81 | 1011.8 |
| 20260510085438 | 12 | 252 | 0.0 | 0.0 | 0.00 | 0.00 | 0.00 | 81 | 1011.9 |
| 20260510085235 | 12 | 252 | 0.0 | 0.0 | 0.00 | 0.00 | 0.00 | 81 | 1011.8 |
| 20260510085027 | 12 | 252 | 0.0 | 0.0 | 0.00 | 0.00 | 0.00 | 81 | 1011.8 |
| 20260510084821 | 12 | 252 | 0.0 | 0.0 | 0.00 | 0.00 | 0.00 | 81 | 1011.8 |
| 20260510084425 | 12 | 252 | 0.0 | 0.0 | 0.00 | 0.00 | 0.00 | 81 | 1011.8 |
| 20260510084037 | 12 | 252 | 0.0 | 0.0 | 0.00 | 0.00 | 0.00 | 81 | 1011.9 |
| 20260510083830 | 12 | 252 | 0.0 | 0.0 | 0.00 | 0.00 | 0.00 | 80 | 1011.9 |
| 20260510083620 | 12 | 252 | 0.0 | 0.0 | 0.00 | 0.00 | 0.00 | 80 | 1011.9 |
| 20260510083414 | 12 | 252 | 0.0 | 0.0 | 0.00 | 0.00 | 0.00 | 80 | 1011.8 |
| 20260510083205 | 12 | 252 | 0.0 | 0.0 | 0.00 | 0.00 | 0.00 | 80 | 1011.8 |
| 20260510083000 | 12 | 252 | 0.0 | 0.0 | 0.00 | 0.00 | 0.00 | 81 | 1011.9 |
| 20260510082606 | 12 | 252 | 0.0 | 0.0 | 0.00 | 0.00 | 0.00 | 80 | 1011.9 |
| 20260510082403 | 12 | 252 | 0.0 | 0.0 | 0.00 | 0.00 | 0.00 | 80 | 1011.9 |
| 20260510082156 | 12 | 252 | 0.0 | 0.0 | 0.00 | 0.00 | 0.00 | 80 | 1011.9 |
| 20260510081808 | 12 | 252 | 0.0 | 0.0 | 0.00 | 0.00 | 0.00 | 80 | 1011.9 |
| 20260510081555 | 12 | 252 | 0.0 | 0.0 | 0.00 | 0.00 | 0.00 | 80 | 1011.9 |
| 20260510081201 | 12 | 252 | 0.0 | 0.0 | 0.00 | 0.00 | 0.00 | 80 | 1011.9 |
| 20260510080948 | 12 | 252 | 0.0 | 0.0 | 0.00 | 0.00 | 0.00 | 80 | 1012.0 |
| 20260510080738 | 12 | 252 | 0.0 | 0.0 | 0.00 | 0.00 | 0.00 | 80 | 1012.0 |
| 20260510080533 | 12 | 252 | 0.0 | 0.0 | 0.00 | 0.00 | 0.00 | 80 | 1011.9 |
| 20260510080325 | 12 | 252 | 0.0 | 0.0 | 0.00 | 0.00 | 0.00 | 80 | 1012.0 |
| 20260510075939 | 12 | 252 | 0.0 | 0.0 | 0.00 | 0.00 | 0.00 | 79 | 1012.0 |
| 20260510075737 | 12 | 252 | 0.0 | 0.0 | 0.00 | 0.00 | 0.00 | 79 | 1012.0 |
| 20260510075530 | 12 | 252 | 0.0 | 0.0 | 0.00 | 0.00 | 0.00 | 79 | 1012.1 |
| 20260510075320 | 12 | 252 | 0.0 | 0.0 | 0.00 | 0.00 | 0.00 | 79 | 1012.1 |
| 20260510074924 | 12 | 252 | 0.0 | 0.0 | 0.00 | 0.00 | 0.00 | 79 | 1012.1 |
| 20260510074711 | 12 | 252 | 0.0 | 0.0 | 0.00 | 0.00 | 0.00 | 79 | 1012.1 |
| 20260510074506 | 12 | 252 | 0.0 | 0.0 | 0.00 | 0.00 | 0.00 | 79 | 1012.1 |
| 20260510074258 | 12 | 252 | 0.0 | 0.0 | 0.00 | 0.00 | 0.00 | 79 | 1012.1 |
| 20260510074053 | 12 | 252 | 0.0 | 0.0 | 0.00 | 0.00 | 0.00 | 79 | 1012.1 |
| 20260510073841 | 12 | 252 | 0.0 | 0.0 | 0.00 | 0.00 | 0.00 | 78 | 1012.1 |
| 20260510073637 | 12 | 252 | 0.0 | 0.0 | 0.00 | 0.00 | 0.00 | 78 | 1012.1 |
| 20260510073427 | 12 | 252 | 0.0 | 0.0 | 0.00 | 0.00 | 0.00 | 78 | 1012.1 |
| 20260510073214 | 12 | 252 | 0.0 | 0.0 | 0.00 | 0.00 | 0.00 | 78 | 1012.1 |
| 20260510072825 | 12 | 252 | 0.0 | 0.0 | 0.00 | 0.00 | 0.00 | 78 | 1012.1 |
| 20260510072613 | 12 | 252 | 0.0 | 0.0 | 0.00 | 0.00 | 0.00 | 78 | 1012.1 |
| 20260510072403 | 12 | 252 | 0.0 | 0.0 | 0.00 | 0.00 | 0.00 | 78 | 1012.1 |
| 20260510072201 | 12 | 252 | 0.0 | 0.0 | 0.00 | 0.00 | 0.00 | 78 | 1012.1 |
| 20260510071951 | 12 | 252 | 0.0 | 0.0 | 0.00 | 0.00 | 0.00 | 78 | 1012.1 |
| 20260510071749 | 12 | 252 | 0.0 | 0.0 | 0.00 | 0.00 | 0.00 | 78 | 1012.1 |
| 20260510071544 | 12 | 252 | 0.0 | 0.0 | 0.00 | 0.00 | 0.00 | 78 | 1012.1 |
| 20260510071339 | 12 | 252 | 0.0 | 0.0 | 0.00 | 0.00 | 0.00 | 78 | 1012.1 |
| 20260510071129 | 13 | 252 | 0.0 | 0.0 | 0.00 | 0.00 | 0.00 | 78 | 1012.1 |
| 20260510070924 | 13 | 252 | 0.0 | 0.0 | 0.00 | 0.00 | 0.00 | 78 | 1012.1 |
| 20260510070716 | 13 | 252 | 0.0 | 0.0 | 0.00 | 0.00 | 0.00 | 78 | 1012.2 |
| 20260510070322 | 13 | 252 | 0.0 | 0.0 | 0.00 | 0.00 | 0.00 | 78 | 1012.1 |
| 20260510065557 | 13 | 252 | 0.0 | 0.0 | 0.00 | 0.00 | 0.00 | 78 | 1012.1 |
| 20260510065204 | 13 | 252 | 0.0 | 0.0 | 0.00 | 0.00 | 0.00 | 78 | 1012.1 |
| 20260510065002 | 13 | 252 | 0.0 | 0.0 | 0.00 | 0.00 | 0.00 | 78 | 1012.1 |
| 20260510064756 | 13 | 252 | 0.0 | 0.0 | 0.00 | 0.00 | 0.00 | 78 | 1012.2 |
| 20260510064548 | 13 | 252 | 0.0 | 0.0 | 0.00 | 0.00 | 0.00 | 77 | 1012.1 |
| 20260510064345 | 13 | 252 | 0.0 | 0.0 | 0.00 | 0.00 | 0.00 | 77 | 1012.2 |
| 20260510064140 | 13 | 252 | 0.0 | 0.0 | 0.00 | 0.00 | 0.00 | 77 | 1012.1 |
| 20260510063931 | 13 | 252 | 0.0 | 0.0 | 0.00 | 0.00 | 0.00 | 77 | 1012.1 |
| 20260510063719 | 13 | 252 | 0.0 | 0.0 | 0.00 | 0.00 | 0.00 | 77 | 1012.1 |
| 20260510063517 | 13 | 252 | 0.0 | 0.0 | 0.00 | 0.00 | 0.00 | 77 | 1012.1 |
| 20260510063307 | 13 | 252 | 0.0 | 0.0 | 0.00 | 0.00 | 0.00 | 77 | 1012.0 |
| 20260510063057 | 13 | 252 | 0.0 | 0.0 | 0.00 | 0.00 | 0.00 | 77 | 1012.0 |
| 20260510062848 | 13 | 252 | 0.0 | 0.0 | 0.00 | 0.00 | 0.00 | 77 | 1012.0 |
| 20260510062644 | 13 | 252 | 0.0 | 0.0 | 0.00 | 0.00 | 0.00 | 77 | 1012.0 |
| 20260510062442 | 13 | 252 | 0.0 | 0.0 | 0.00 | 0.00 | 0.00 | 77 | 1012.0 |
| 20260510062235 | 13 | 252 | 0.0 | 0.0 | 0.00 | 0.00 | 0.00 | 77 | 1012.0 |
| 20260510062025 | 13 | 252 | 0.0 | 0.0 | 0.00 | 0.00 | 0.00 | 77 | 1012.1 |
| 20260510061635 | 13 | 252 | 0.0 | 0.0 | 0.00 | 0.00 | 0.00 | 77 | 1012.1 |
| 20260510061431 | 13 | 252 | 0.0 | 0.0 | 0.00 | 0.00 | 0.00 | 77 | 1012.1 |
| 20260510061219 | 13 | 252 | 0.0 | 0.0 | 0.00 | 0.00 | 0.00 | 77 | 1012.1 |
| 20260510060824 | 13 | 252 | 0.0 | 0.0 | 0.00 | 0.00 | 0.00 | 77 | 1012.1 |
| 20260510060616 | 13 | 252 | 0.0 | 0.0 | 0.00 | 0.00 | 0.00 | 76 | 1012.1 |
| 20260510060410 | 14 | 252 | 0.0 | 0.0 | 0.00 | 0.00 | 0.00 | 76 | 1012.1 |
| 20260510060158 | 14 | 252 | 0.0 | 0.0 | 0.00 | 0.00 | 0.00 | 76 | 1012.1 |
| 20260510055947 | 14 | 252 | 0.0 | 0.0 | 0.00 | 0.00 | 0.00 | 76 | 1012.1 |
| 20260510055741 | 14 | 252 | 0.0 | 0.0 | 0.00 | 0.00 | 0.00 | 76 | 1012.1 |
| 20260510055537 | 14 | 252 | 0.0 | 0.0 | 0.00 | 0.00 | 0.00 | 76 | 1012.2 |
| 20260510055336 | 14 | 252 | 0.0 | 0.0 | 0.00 | 0.00 | 0.00 | 76 | 1012.1 |
| 20260510055128 | 14 | 252 | 0.0 | 0.0 | 0.00 | 0.00 | 0.00 | 76 | 1012.1 |
| 20260510054925 | 14 | 252 | 0.0 | 0.0 | 0.00 | 0.00 | 0.00 | 76 | 1012.1 |
| 20260510054530 | 14 | 252 | 0.0 | 0.0 | 0.00 | 0.00 | 0.00 | 76 | 1012.1 |
| 20260510054319 | 14 | 252 | 0.0 | 0.0 | 0.00 | 0.00 | 0.00 | 76 | 1012.2 |
| 20260510053931 | 14 | 252 | 0.0 | 0.0 | 0.00 | 0.00 | 0.00 | 76 | 1012.1 |
| 20260510053725 | 15 | 252 | 0.0 | 0.0 | 0.00 | 0.00 | 0.00 | 76 | 1012.1 |
| 20260510053522 | 15 | 252 | 0.0 | 0.0 | 0.00 | 0.00 | 0.00 | 76 | 1012.1 |
| 20260510053317 | 15 | 252 | 0.0 | 0.0 | 0.00 | 0.00 | 0.00 | 75 | 1012.1 |
| 20260510053107 | 15 | 252 | 0.0 | 0.0 | 0.00 | 0.00 | 0.00 | 75 | 1012.0 |
| 20260510052531 | 15 | 252 | 0.0 | 0.0 | 0.00 | 0.00 | 0.00 | 75 | 1012.0 |
| 20260510052328 | 15 | 252 | 0.0 | 0.0 | 0.00 | 0.00 | 0.00 | 75 | 1012.0 |
| 20260510052120 | 15 | 252 | 0.0 | 0.0 | 0.00 | 0.00 | 0.00 | 75 | 1012.1 |
| 20260510051911 | 15 | 252 | 0.0 | 0.0 | 0.00 | 0.00 | 0.00 | 75 | 1012.0 |
| 20260510051708 | 15 | 252 | 0.0 | 0.0 | 0.00 | 0.00 | 0.00 | 75 | 1012.0 |
| 20260510051456 | 15 | 252 | 0.0 | 0.0 | 0.00 | 0.00 | 0.00 | 75 | 1012.0 |
| 20260510051248 | 15 | 252 | 0.0 | 0.0 | 0.00 | 0.00 | 0.00 | 75 | 1012.0 |
| 20260510051040 | 15 | 252 | 0.0 | 0.0 | 0.00 | 0.00 | 0.00 | 75 | 1012.0 |
| 20260510050837 | 15 | 252 | 0.0 | 0.0 | 0.00 | 0.00 | 0.00 | 75 | 1012.0 |
| 20260510050633 | 15 | 252 | 0.0 | 0.0 | 0.00 | 0.00 | 0.00 | 74 | 1011.9 |
| 20260510050426 | 15 | 252 | 0.0 | 0.0 | 0.00 | 0.00 | 0.00 | 74 | 1011.9 |
| 20260510050213 | 15 | 252 | 0.0 | 0.0 | 0.00 | 0.00 | 0.00 | 74 | 1011.9 |
| 20260510050008 | 15 | 252 | 0.0 | 0.0 | 0.00 | 0.00 | 0.00 | 74 | 1011.9 |
| 20260510045757 | 15 | 252 | 0.0 | 0.0 | 0.00 | 0.00 | 0.00 | 74 | 1012.0 |
| 20260510045551 | 16 | 252 | 0.0 | 0.0 | 0.00 | 0.00 | 0.00 | 74 | 1011.9 |
| 20260510045350 | 16 | 252 | 0.0 | 0.0 | 0.00 | 0.00 | 0.00 | 74 | 1011.9 |
| 20260510044957 | 16 | 252 | 0.0 | 0.0 | 0.00 | 0.00 | 0.00 | 73 | 1011.8 |
| 20260510044745 | 16 | 252 | 0.0 | 0.0 | 0.00 | 0.00 | 0.00 | 73 | 1011.8 |
| 20260510044534 | 16 | 252 | 0.0 | 0.0 | 0.00 | 0.00 | 0.00 | 73 | 1011.8 |
| 20260510044322 | 16 | 252 | 0.0 | 0.0 | 0.00 | 0.00 | 0.00 | 73 | 1011.7 |
| 20260510044115 | 16 | 252 | 0.0 | 0.0 | 0.00 | 0.00 | 0.00 | 73 | 1011.7 |
| 20260510043903 | 16 | 252 | 0.0 | 0.0 | 0.00 | 0.00 | 0.00 | 73 | 1011.7 |
| 20260510043651 | 16 | 252 | 0.0 | 0.0 | 0.00 | 0.00 | 0.00 | 72 | 1011.6 |
| 20260510043438 | 16 | 252 | 0.0 | 0.0 | 0.00 | 0.00 | 0.00 | 72 | 1011.6 |
| 20260510043231 | 16 | 252 | 0.0 | 0.0 | 0.00 | 0.00 | 0.00 | 72 | 1011.6 |
| 20260510043018 | 16 | 252 | 0.0 | 0.0 | 0.00 | 0.00 | 0.00 | 72 | 1011.6 |
| 20260510042811 | 16 | 252 | 0.0 | 0.0 | 0.00 | 0.00 | 0.00 | 72 | 1011.6 |
| 20260510042601 | 16 | 252 | 0.0 | 0.0 | 0.00 | 0.00 | 0.00 | 71 | 1011.6 |
| 20260510042349 | 16 | 252 | 0.0 | 0.0 | 0.00 | 0.00 | 0.00 | 71 | 1011.6 |
| 20260510041959 | 17 | 252 | 0.0 | 0.0 | 0.00 | 0.00 | 0.00 | 70 | 1011.6 |
| 20260510041757 | 17 | 252 | 0.0 | 0.0 | 0.00 | 0.00 | 0.00 | 70 | 1011.6 |
| 20260510041546 | 17 | 252 | 0.0 | 0.0 | 0.00 | 0.00 | 0.00 | 70 | 1011.6 |
| 20260510041342 | 17 | 252 | 0.0 | 0.0 | 0.00 | 0.00 | 0.00 | 70 | 1011.5 |
| 20260510041133 | 17 | 252 | 0.0 | 0.0 | 0.00 | 0.00 | 0.00 | 70 | 1011.5 |
| 20260510040929 | 17 | 252 | 0.0 | 0.0 | 0.00 | 0.00 | 0.00 | 69 | 1011.5 |
| 20260510040726 | 17 | 252 | 0.0 | 0.0 | 0.00 | 0.00 | 0.00 | 69 | 1011.5 |
| 20260510040521 | 17 | 252 | 0.0 | 0.0 | 0.00 | 0.00 | 0.00 | 69 | 1011.4 |
| 20260510040312 | 17 | 252 | 0.0 | 0.0 | 0.00 | 0.00 | 0.00 | 69 | 1011.3 |
| 20260510040107 | 17 | 252 | 0.0 | 0.0 | 0.00 | 0.00 | 0.00 | 69 | 1011.3 |
| 20260510035719 | 17 | 252 | 0.0 | 0.0 | 0.00 | 0.00 | 0.00 | 68 | 1011.3 |
| 20260510035507 | 18 | 252 | 0.0 | 0.0 | 0.00 | 0.00 | 0.00 | 68 | 1011.2 |
| 20260510035115 | 18 | 252 | 0.0 | 0.0 | 0.00 | 0.00 | 0.00 | 67 | 1011.2 |
| 20260510034908 | 18 | 252 | 0.0 | 0.0 | 0.00 | 0.00 | 0.00 | 67 | 1011.2 |
| 20260510034702 | 18 | 252 | 0.0 | 0.0 | 0.00 | 0.00 | 0.00 | 67 | 1011.2 |
| 20260510034450 | 18 | 252 | 0.0 | 0.0 | 0.00 | 0.00 | 0.00 | 67 | 1011.1 |
| 20260510034100 | 18 | 252 | 0.0 | 0.0 | 0.00 | 0.00 | 0.00 | 67 | 1011.0 |
| 20260510033710 | 18 | 252 | 0.0 | 0.0 | 0.00 | 0.00 | 0.00 | 66 | 1011.0 |
| 20260510033504 | 18 | 252 | 0.0 | 0.0 | 0.00 | 0.00 | 0.00 | 66 | 1011.0 |
| 20260510033258 | 18 | 252 | 0.0 | 0.0 | 0.00 | 0.00 | 0.00 | 66 | 1011.0 |
| 20260510033049 | 19 | 252 | 0.0 | 0.0 | 0.00 | 0.00 | 0.00 | 66 | 1011.0 |
| 20260510032654 | 19 | 252 | 0.0 | 0.0 | 0.00 | 0.00 | 0.00 | 66 | 1010.9 |
| 20260510032449 | 19 | 252 | 0.0 | 0.0 | 0.00 | 0.00 | 0.00 | 65 | 1010.9 |
| 20260510032237 | 19 | 252 | 0.0 | 0.0 | 0.00 | 0.00 | 0.00 | 65 | 1010.9 |
| 20260510032030 | 19 | 252 | 0.0 | 0.0 | 0.00 | 0.00 | 0.00 | 65 | 1010.9 |
| 20260510031825 | 20 | 252 | 0.0 | 0.0 | 0.00 | 0.00 | 0.00 | 65 | 1010.9 |
| 20260510031439 | 20 | 252 | 0.0 | 0.0 | 0.00 | 0.00 | 0.00 | 65 | 1010.7 |
| 20260510031232 | 20 | 252 | 0.0 | 0.0 | 0.00 | 0.00 | 0.00 | 64 | 1010.7 |
| 20260510031024 | 20 | 252 | 0.0 | 0.0 | 0.00 | 0.00 | 0.00 | 64 | 1010.7 |
| 20260510030819 | 20 | 252 | 0.0 | 0.0 | 0.00 | 0.00 | 0.00 | 64 | 1010.7 |
| 20260510030614 | 20 | 252 | 0.0 | 0.0 | 0.00 | 0.00 | 0.00 | 63 | 1010.7 |
| 20260510030411 | 20 | 252 | 0.0 | 0.0 | 0.00 | 0.00 | 0.00 | 63 | 1010.7 |
| 20260510025836 | 20 | 252 | 0.0 | 0.0 | 0.00 | 0.00 | 0.00 | 63 | 1010.7 |
| 20260510025445 | 21 | 252 | 0.0 | 0.0 | 0.00 | 0.00 | 0.00 | 63 | 1010.6 |
| 20260510025241 | 21 | 252 | 0.0 | 0.0 | 0.00 | 0.00 | 0.00 | 63 | 1010.6 |
| 20260510025030 | 21 | 252 | 0.0 | 0.0 | 0.00 | 0.00 | 0.00 | 62 | 1010.6 |
| 20260510024825 | 21 | 252 | 0.0 | 0.0 | 0.00 | 0.00 | 0.00 | 62 | 1010.6 |
| 20260510024616 | 21 | 252 | 0.0 | 0.0 | 0.00 | 0.00 | 0.00 | 62 | 1010.6 |
| 20260510024406 | 21 | 252 | 0.0 | 0.0 | 0.00 | 0.00 | 0.00 | 62 | 1010.6 |
| 20260510024011 | 21 | 252 | 0.0 | 0.0 | 0.00 | 0.00 | 0.00 | 61 | 1010.6 |
| 20260510023759 | 21 | 252 | 0.0 | 0.0 | 0.00 | 0.00 | 0.00 | 61 | 1010.6 |
| 20260510023402 | 21 | 252 | 0.0 | 0.0 | 0.00 | 0.00 | 0.00 | 60 | 1010.6 |
| 20260510023154 | 22 | 252 | 0.0 | 0.0 | 0.00 | 0.00 | 0.00 | 60 | 1010.5 |
| 20260510022944 | 22 | 252 | 0.0 | 0.0 | 0.00 | 0.00 | 0.00 | 60 | 1010.6 |
| 20260510022735 | 22 | 252 | 0.0 | 0.0 | 0.00 | 0.00 | 0.00 | 59 | 1010.5 |
| 20260510022525 | 22 | 252 | 0.0 | 0.0 | 0.00 | 0.00 | 0.00 | 59 | 1010.5 |
| 20260510022131 | 22 | 252 | 0.0 | 0.0 | 0.00 | 0.00 | 0.00 | 59 | 1010.6 |
| 20260510021738 | 22 | 252 | 0.0 | 0.0 | 0.00 | 0.00 | 0.00 | 58 | 1010.5 |
| 20260510021531 | 22 | 252 | 0.0 | 0.0 | 0.00 | 0.00 | 0.00 | 58 | 1010.6 |
| 20260510021325 | 23 | 252 | 0.0 | 0.0 | 0.00 | 0.00 | 0.00 | 57 | 1010.5 |
| 20260510021119 | 23 | 252 | 0.0 | 0.0 | 0.00 | 0.00 | 0.00 | 57 | 1010.5 |
| 20260510020909 | 23 | 252 | 0.0 | 0.0 | 0.00 | 0.00 | 0.00 | 57 | 1010.5 |
| 20260510020659 | 23 | 252 | 0.0 | 0.0 | 0.00 | 0.00 | 0.00 | 56 | 1010.5 |
| 20260510020302 | 23 | 252 | 0.0 | 0.0 | 0.00 | 0.00 | 0.00 | 55 | 1010.5 |
| 20260510020058 | 23 | 252 | 0.0 | 0.0 | 0.00 | 0.00 | 0.00 | 55 | 1010.5 |
| 20260510015851 | 24 | 252 | 0.0 | 0.0 | 0.00 | 0.00 | 0.00 | 55 | 1010.5 |
| 20260510015645 | 24 | 252 | 0.0 | 0.0 | 0.00 | 0.00 | 0.00 | 53 | 1010.5 |
| 20260510015437 | 24 | 252 | 0.0 | 0.0 | 0.00 | 0.00 | 0.00 | 53 | 1010.5 |
| 20260510014855 | 25 | 252 | 0.0 | 0.0 | 0.00 | 0.00 | 0.00 | 51 | 1010.5 |
| 20260510014650 | 25 | 252 | 0.0 | 3.2 | 0.00 | 0.00 | 0.00 | 49 | 1010.5 |
| 20260510014302 | 25 | 251 | 0.0 | 3.2 | 0.00 | 0.00 | 0.00 | 52 | 1010.5 |
| 20260510013914 | 25 | 251 | 0.0 | 0.0 | 0.00 | 0.00 | 0.00 | 51 | 1010.4 |
| 20260510013706 | 25 | 251 | 0.0 | 0.0 | 0.00 | 0.00 | 0.00 | 51 | 1010.5 |
| 20260510013502 | 25 | 251 | 0.0 | 0.0 | 0.00 | 0.00 | 0.00 | 49 | 1010.5 |
| 20260510013250 | 25 | 251 | 0.0 | 1.6 | 0.00 | 0.00 | 0.00 | 48 | 1010.4 |
| 20260510013041 | 25 | 251 | 0.0 | 0.0 | 0.00 | 0.00 | 0.00 | 48 | 1010.5 |
| 20260510012838 | 25 | 251 | 0.0 | 0.0 | 0.00 | 0.00 | 0.00 | 47 | 1010.5 |
| 20260510012628 | 25 | 251 | 0.0 | 3.2 | 0.00 | 0.00 | 0.00 | 47 | 1010.5 |
| 20260510012423 | 25 | 251 | 0.0 | 0.0 | 0.00 | 0.00 | 0.00 | 46 | 1010.5 |
| 20260510012212 | 26 | 251 | 0.0 | 3.2 | 0.00 | 0.00 | 0.00 | 46 | 1010.4 |
| 20260510012001 | 26 | 251 | 0.0 | 0.0 | 0.00 | 0.00 | 0.00 | 48 | 1010.4 |
| 20260510011758 | 26 | 251 | 0.0 | 4.8 | 0.00 | 0.00 | 0.00 | 46 | 1010.5 |
| 20260510011555 | 26 | 251 | 0.0 | 3.2 | 0.00 | 0.00 | 0.00 | 45 | 1010.5 |
| 20260510011345 | 26 | 251 | 0.0 | 8.0 | 0.00 | 0.00 | 0.00 | 45 | 1010.5 |
| 20260510011134 | 26 | 284 | 0.0 | 6.4 | 0.00 | 0.00 | 0.00 | 46 | 1010.5 |
| 20260510010928 | 26 | 281 | 0.0 | 0.0 | 0.00 | 0.00 | 0.00 | 46 | 1010.5 |
| 20260510010717 | 26 | 281 | 0.0 | 6.4 | 0.00 | 0.00 | 0.00 | 45 | 1010.5 |
| 20260510010506 | 26 | 281 | 0.0 | 6.4 | 0.00 | 0.00 | 0.00 | 45 | 1010.5 |
| 20260510010258 | 26 | 281 | 0.0 | 6.4 | 0.00 | 0.00 | 0.00 | 45 | 1010.5 |
| 20260510005718 | 26 | 280 | 0.0 | 4.8 | 0.00 | 0.00 | 0.00 | 44 | 1010.6 |
| 20260510005513 | 26 | 280 | 0.0 | 8.0 | 0.00 | 0.00 | 0.00 | 45 | 1010.6 |
| 20260510005309 | 26 | 281 | 0.0 | 8.0 | 0.00 | 0.00 | 0.00 | 44 | 1010.6 |
| 20260510005102 | 26 | 185 | 0.0 | 4.8 | 0.00 | 0.00 | 0.00 | 44 | 1010.5 |
| 20260510004850 | 26 | 185 | 0.0 | 4.8 | 0.00 | 0.00 | 0.00 | 44 | 1010.6 |
| 20260510004500 | 26 | 171 | 0.0 | 4.8 | 0.00 | 0.00 | 0.00 | 44 | 1010.5 |
| 20260510004112 | 26 | 150 | 0.0 | 4.8 | 0.00 | 0.00 | 0.00 | 45 | 1010.6 |
| 20260510003904 | 26 | 269 | 0.0 | 6.4 | 0.00 | 0.00 | 0.00 | 44 | 1010.6 |
| 20260510003657 | 26 | 269 | 0.0 | 6.4 | 0.00 | 0.00 | 0.00 | 44 | 1010.7 |
| 20260510003445 | 26 | 290 | 0.0 | 6.4 | 0.00 | 0.00 | 0.00 | 45 | 1010.7 |
| 20260510003243 | 26 | 245 | 0.0 | 0.0 | 0.00 | 0.00 | 0.00 | 44 | 1010.6 |
| 20260510003032 | 26 | 245 | 0.0 | 6.4 | 0.00 | 0.00 | 0.00 | 43 | 1010.6 |
| 20260510002822 | 26 | 244 | 0.0 | 4.8 | 0.00 | 0.00 | 0.00 | 43 | 1010.5 |
| 20260510002620 | 26 | 244 | 0.0 | 1.6 | 0.00 | 0.00 | 0.00 | 46 | 1010.5 |
| 20260510002408 | 26 | 244 | 0.0 | 4.8 | 0.00 | 0.00 | 0.00 | 44 | 1010.5 |
| 20260510002200 | 26 | 244 | 0.0 | 4.8 | 0.00 | 0.00 | 0.00 | 44 | 1010.5 |
| 20260510001958 | 26 | 244 | 0.0 | 4.8 | 0.00 | 0.00 | 0.00 | 44 | 1010.5 |
| 20260510001748 | 26 | 244 | 0.0 | 4.8 | 0.00 | 0.00 | 0.00 | 46 | 1010.5 |
| 20260510001544 | 26 | 240 | 0.0 | 4.8 | 0.00 | 0.00 | 0.00 | 44 | 1010.5 |
| 20260510001334 | 26 | 240 | 0.0 | 4.8 | 0.00 | 0.00 | 0.00 | 44 | 1010.5 |
| 20260510001126 | 26 | 240 | 0.0 | 4.8 | 0.00 | 0.00 | 0.00 | 44 | 1010.5 |
| 20260510000922 | 26 | 240 | 1.6 | 9.7 | 0.00 | 0.00 | 0.00 | 45 | 1010.6 |
| 20260510000712 | 26 | 240 | 1.6 | 9.7 | 0.00 | 0.00 | 0.00 | 45 | 1010.6 |
| 20260510000458 | 26 | 251 | 1.6 | 9.7 | 0.00 | 0.00 | 0.00 | 44 | 1010.6 |
| 20260510000249 | 26 | 289 | 1.6 | 9.7 | 0.00 | 0.00 | 0.00 | 44 | 1010.6 |
| 20260509235854 | 26 | 200 | 0.0 | 8.0 | 0.00 | 0.00 | 0.00 | 44 | 1010.5 |
| 20260509235644 | 26 | 335 | 1.6 | 8.0 | 0.00 | 0.00 | 0.00 | 45 | 1010.5 |
| 20260509235431 | 26 | 339 | 1.6 | 9.7 | 0.00 | 0.00 | 0.00 | 45 | 1010.6 |
| 20260509235033 | 26 | 282 | 1.6 | 9.7 | 0.00 | 0.00 | 0.00 | 45 | 1010.7 |
| 20260509234824 | 26 | 282 | 0.0 | 9.7 | 0.00 | 0.00 | 0.00 | 45 | 1010.7 |
| 20260509234620 | 26 | 302 | 0.0 | 9.7 | 0.00 | 0.00 | 0.00 | 47 | 1010.7 |
| 20260509234413 | 26 | 266 | 1.6 | 9.7 | 0.00 | 0.00 | 0.00 | 45 | 1010.6 |
| 20260509234209 | 26 | 247 | 1.6 | 9.7 | 0.00 | 0.00 | 0.00 | 47 | 1010.6 |
| 20260509234001 | 26 | 200 | 1.6 | 9.7 | 0.00 | 0.00 | 0.00 | 48 | 1010.6 |
| 20260509233756 | 26 | 200 | 1.6 | 9.7 | 0.00 | 0.00 | 0.00 | 46 | 1010.6 |
| 20260509233407 | 26 | 198 | 1.6 | 8.0 | 0.00 | 0.00 | 0.00 | 47 | 1010.6 |
| 20260509233154 | 26 | 199 | 1.6 | 8.0 | 0.00 | 0.00 | 0.00 | 46 | 1010.6 |
| 20260509232942 | 26 | 208 | 1.6 | 8.0 | 0.00 | 0.00 | 0.00 | 46 | 1010.6 |
| 20260509232738 | 26 | 225 | 1.6 | 6.4 | 0.00 | 0.00 | 0.00 | 46 | 1010.6 |
| 20260509232532 | 26 | 185 | 1.6 | 6.4 | 0.00 | 0.00 | 0.00 | 45 | 1010.6 |
| 20260509232328 | 26 | 202 | 1.6 | 6.4 | 0.00 | 0.00 | 0.00 | 46 | 1010.6 |
| 20260509232118 | 26 | 249 | 1.6 | 6.4 | 0.00 | 0.00 | 0.00 | 46 | 1010.6 |
| 20260509231912 | 26 | 249 | 1.6 | 6.4 | 0.00 | 0.00 | 0.00 | 45 | 1010.7 |
| 20260509231700 | 26 | 277 | 0.0 | 6.4 | 0.00 | 0.00 | 0.00 | 46 | 1010.7 |
| 20260509231458 | 26 | 286 | 0.0 | 6.4 | 0.00 | 0.00 | 0.00 | 45 | 1010.7 |
| 20260509231255 | 27 | 286 | 0.0 | 6.4 | 0.00 | 0.00 | 0.00 | 45 | 1010.7 |
| 20260509231053 | 27 | 250 | 0.0 | 8.0 | 0.00 | 0.00 | 0.00 | 46 | 1010.7 |
| 20260509230849 | 26 | 199 | 0.0 | 8.0 | 0.00 | 0.00 | 0.00 | 47 | 1010.7 |
| 20260509230646 | 26 | 199 | 0.0 | 8.0 | 0.00 | 0.00 | 0.00 | 47 | 1010.7 |
| 20260509230255 | 26 | 196 | 1.6 | 8.0 | 0.00 | 0.00 | 0.00 | 46 | 1010.7 |
| 20260509225906 | 26 | 165 | 1.6 | 8.0 | 0.00 | 0.00 | 0.00 | 45 | 1010.8 |
| 20260509225653 | 26 | 186 | 1.6 | 8.0 | 0.00 | 0.00 | 0.00 | 47 | 1010.7 |
| 20260509225446 | 26 | 316 | 1.6 | 8.0 | 0.00 | 0.00 | 0.00 | 47 | 1010.8 |
| 20260509225055 | 26 | 190 | 0.0 | 6.4 | 0.00 | 0.00 | 0.00 | 47 | 1010.8 |
| 20260509224701 | 26 | 271 | 0.0 | 9.7 | 0.00 | 0.00 | 0.00 | 46 | 1010.9 |
| 20260509224456 | 27 | 273 | 1.6 | 9.7 | 0.00 | 0.00 | 0.00 | 46 | 1010.9 |
| 20260509224102 | 26 | 271 | 1.6 | 9.7 | 0.00 | 0.00 | 0.00 | 46 | 1010.9 |
| 20260509223901 | 26 | 293 | 1.6 | 9.7 | 0.00 | 0.00 | 0.00 | 46 | 1010.9 |
| 20260509223513 | 27 | 200 | 0.0 | 6.4 | 0.00 | 0.00 | 0.00 | 46 | 1011.0 |
| 20260509223306 | 27 | 178 | 1.6 | 6.4 | 0.00 | 0.00 | 0.00 | 46 | 1011.0 |
| 20260509223102 | 27 | 173 | 1.6 | 8.0 | 0.00 | 0.00 | 0.00 | 46 | 1011.2 |
| 20260509222857 | 27 | 265 | 1.6 | 8.0 | 0.00 | 0.00 | 0.00 | 45 | 1011.1 |
| 20260509222646 | 27 | 216 | 1.6 | 8.0 | 0.00 | 0.00 | 0.00 | 47 | 1011.2 |
| 20260509222435 | 26 | 209 | 0.0 | 8.0 | 0.00 | 0.00 | 0.00 | 48 | 1011.2 |
| 20260509222039 | 26 | 243 | 0.0 | 12.9 | 0.00 | 0.00 | 0.00 | 46 | 1011.2 |
| 20260509221827 | 26 | 242 | 1.6 | 12.9 | 0.00 | 0.00 | 0.00 | 49 | 1011.2 |
| 20260509221248 | 26 | 155 | 1.6 | 12.9 | 0.00 | 0.00 | 0.00 | 46 | 1011.3 |
| 20260509221037 | 26 | 294 | 1.6 | 16.1 | 0.00 | 0.00 | 0.00 | 45 | 1011.4 |
| 20260509220829 | 26 | 201 | 1.6 | 16.1 | 0.00 | 0.00 | 0.00 | 48 | 1011.3 |
| 20260509220434 | 26 | 193 | 1.6 | 16.1 | 0.00 | 0.00 | 0.00 | 48 | 1011.3 |
| 20260509220232 | 26 | 236 | 3.2 | 16.1 | 0.00 | 0.00 | 0.00 | 47 | 1011.3 |
| 20260509220023 | 26 | 205 | 3.2 | 16.1 | 0.00 | 0.00 | 0.00 | 47 | 1011.3 |
| 20260509215820 | 26 | 178 | 3.2 | 16.1 | 0.00 | 0.00 | 0.00 | 46 | 1011.3 |
| 20260509215608 | 26 | 198 | 3.2 | 16.1 | 0.00 | 0.00 | 0.00 | 45 | 1011.3 |
| 20260509215358 | 26 | 163 | 1.6 | 16.1 | 0.00 | 0.00 | 0.00 | 45 | 1011.3 |
| 20260509215155 | 26 | 205 | 1.6 | 11.3 | 0.00 | 0.00 | 0.00 | 47 | 1011.3 |
| 20260509214803 | 27 | 210 | 1.6 | 11.3 | 0.00 | 0.00 | 0.00 | 45 | 1011.4 |
| 20260509214557 | 26 | 197 | 1.6 | 11.3 | 0.00 | 0.00 | 0.00 | 46 | 1011.4 |
| 20260509214347 | 26 | 197 | 1.6 | 11.3 | 0.00 | 0.00 | 0.00 | 46 | 1011.4 |
| 20260509213952 | 26 | 217 | 3.2 | 11.3 | 0.00 | 0.00 | 0.00 | 47 | 1011.5 |
| 20260509213747 | 26 | 188 | 1.6 | 9.7 | 0.00 | 0.00 | 0.00 | 46 | 1011.5 |
| 20260509213539 | 26 | 192 | 3.2 | 9.7 | 0.00 | 0.00 | 0.00 | 46 | 1011.6 |
| 20260509213336 | 26 | 215 | 3.2 | 9.7 | 0.00 | 0.00 | 0.00 | 47 | 1011.6 |
| 20260509213132 | 26 | 226 | 1.6 | 9.7 | 0.00 | 0.00 | 0.00 | 46 | 1011.6 |
| 20260509212928 | 26 | 235 | 1.6 | 8.0 | 0.00 | 0.00 | 0.00 | 47 | 1011.6 |
| 20260509212716 | 26 | 328 | 1.6 | 8.0 | 0.00 | 0.00 | 0.00 | 44 | 1011.5 |
| 20260509212506 | 26 | 259 | 1.6 | 8.0 | 0.00 | 0.00 | 0.00 | 47 | 1011.7 |
| 20260509212259 | 26 | 271 | 1.6 | 8.0 | 0.00 | 0.00 | 0.00 | 47 | 1011.7 |
| 20260509212051 | 26 | 271 | 1.6 | 8.0 | 0.00 | 0.00 | 0.00 | 46 | 1011.7 |
| 20260509211847 | 26 | 271 | 1.6 | 8.0 | 0.00 | 0.00 | 0.00 | 46 | 1011.7 |
| 20260509211640 | 26 | 271 | 1.6 | 8.0 | 0.00 | 0.00 | 0.00 | 46 | 1011.7 |
| 20260509211428 | 26 | 221 | 0.0 | 8.0 | 0.00 | 0.00 | 0.00 | 46 | 1011.8 |
| 20260509211222 | 26 | 199 | 0.0 | 8.0 | 0.00 | 0.00 | 0.00 | 48 | 1011.7 |
| 20260509211021 | 26 | 196 | 0.0 | 8.0 | 0.00 | 0.00 | 0.00 | 48 | 1011.7 |
| 20260509210808 | 26 | 188 | 0.0 | 8.0 | 0.00 | 0.00 | 0.00 | 46 | 1011.7 |
| 20260509210558 | 26 | 217 | 0.0 | 8.0 | 0.00 | 0.00 | 0.00 | 48 | 1011.8 |
| 20260509210345 | 26 | 271 | 1.6 | 1.6 | 0.00 | 0.00 | 0.00 | 50 | 1011.8 |
| 20260509210142 | 25 | 289 | 1.6 | 9.7 | 0.00 | 0.00 | 0.00 | 48 | 1011.8 |
| 20260509205748 | 25 | 282 | 1.6 | 9.7 | 0.00 | 0.00 | 0.00 | 47 | 1011.8 |
| 20260509205541 | 25 | 281 | 1.6 | 17.7 | 0.00 | 0.00 | 0.00 | 46 | 1011.8 |
| 20260509205330 | 26 | 196 | 1.6 | 17.7 | 0.00 | 0.00 | 0.00 | 46 | 1011.8 |
| 20260509204941 | 26 | 286 | 1.6 | 17.7 | 0.00 | 0.00 | 0.00 | 46 | 1011.8 |
| 20260509204735 | 26 | 282 | 3.2 | 17.7 | 0.00 | 0.00 | 0.00 | 46 | 1011.8 |
| 20260509204525 | 26 | 237 | 3.2 | 17.7 | 0.00 | 0.00 | 0.00 | 50 | 1011.9 |
| 20260509204318 | 25 | 220 | 3.2 | 17.7 | 0.00 | 0.00 | 0.00 | 46 | 1011.8 |
| 20260509204112 | 25 | 213 | 3.2 | 17.7 | 0.00 | 0.00 | 0.00 | 49 | 1011.8 |
| 20260509203908 | 25 | 202 | 1.6 | 17.7 | 0.00 | 0.00 | 0.00 | 48 | 1011.8 |
| 20260509203706 | 26 | 161 | 1.6 | 12.9 | 0.00 | 0.00 | 0.00 | 48 | 1011.8 |
| 20260509203502 | 26 | 167 | 1.6 | 12.9 | 0.00 | 0.00 | 0.00 | 49 | 1011.8 |
| 20260509203259 | 26 | 278 | 1.6 | 12.9 | 0.00 | 0.00 | 0.00 | 46 | 1011.9 |
| 20260509203053 | 26 | 271 | 1.6 | 12.9 | 0.00 | 0.00 | 0.00 | 47 | 1011.8 |
| 20260509202842 | 26 | 273 | 1.6 | 12.9 | 0.00 | 0.00 | 0.00 | 45 | 1011.9 |
| 20260509202630 | 26 | 217 | 1.6 | 12.9 | 0.00 | 0.00 | 0.00 | 48 | 1011.9 |
| 20260509202419 | 26 | 218 | 1.6 | 12.9 | 0.00 | 0.00 | 0.00 | 47 | 1011.8 |
| 20260509202208 | 26 | 298 | 1.6 | 12.9 | 0.00 | 0.00 | 0.00 | 47 | 1011.8 |
| 20260509202006 | 25 | 292 | 1.6 | 8.0 | 0.00 | 0.00 | 0.00 | 48 | 1011.8 |
| 20260509201755 | 25 | 302 | 1.6 | 8.0 | 0.00 | 0.00 | 0.00 | 45 | 1011.9 |
| 20260509201550 | 25 | 266 | 1.6 | 6.4 | 0.00 | 0.00 | 0.00 | 47 | 1011.9 |
| 20260509201340 | 25 | 254 | 1.6 | 12.9 | 0.00 | 0.00 | 0.00 | 47 | 1011.9 |
| 20260509201132 | 25 | 161 | 1.6 | 12.9 | 0.00 | 0.00 | 0.00 | 47 | 1011.8 |
| 20260509200921 | 26 | 188 | 1.6 | 12.9 | 0.00 | 0.00 | 0.00 | 47 | 1011.8 |
| 20260509200711 | 26 | 234 | 1.6 | 12.9 | 0.00 | 0.00 | 0.00 | 46 | 1011.9 |
| 20260509200501 | 25 | 234 | 3.2 | 12.9 | 0.00 | 0.00 | 0.00 | 48 | 1011.9 |
| 20260509200252 | 25 | 232 | 3.2 | 12.9 | 0.00 | 0.00 | 0.00 | 47 | 1011.9 |
| 20260509200040 | 25 | 229 | 3.2 | 12.9 | 0.00 | 0.00 | 0.00 | 47 | 1011.9 |
| 20260509195647 | 25 | 267 | 1.6 | 12.9 | 0.00 | 0.00 | 0.00 | 46 | 1012.0 |
| 20260509195443 | 25 | 289 | 0.0 | 14.5 | 0.00 | 0.00 | 0.00 | 47 | 1011.9 |
| 20260509195242 | 25 | 269 | 0.0 | 14.5 | 0.00 | 0.00 | 0.00 | 48 | 1011.9 |
| 20260509195036 | 25 | 269 | 0.0 | 14.5 | 0.00 | 0.00 | 0.00 | 46 | 1012.0 |
| 20260509194829 | 25 | 269 | 0.0 | 14.5 | 0.00 | 0.00 | 0.00 | 47 | 1012.0 |
| 20260509194627 | 25 | 269 | 0.0 | 14.5 | 0.00 | 0.00 | 0.00 | 46 | 1012.1 |
| 20260509194233 | 25 | 266 | 1.6 | 11.3 | 0.00 | 0.00 | 0.00 | 48 | 1012.1 |
| 20260509194031 | 25 | 260 | 0.0 | 11.3 | 0.00 | 0.00 | 0.00 | 48 | 1012.1 |
| 20260509193820 | 25 | 260 | 0.0 | 11.3 | 0.00 | 0.00 | 0.00 | 48 | 1012.1 |
| 20260509193422 | 25 | 325 | 0.0 | 14.5 | 0.00 | 0.00 | 0.00 | 48 | 1012.1 |
| 20260509193032 | 25 | 242 | 0.0 | 14.5 | 0.00 | 0.00 | 0.00 | 46 | 1012.1 |
| 20260509192821 | 25 | 242 | 1.6 | 14.5 | 0.00 | 0.00 | 0.00 | 45 | 1012.2 |
| 20260509192613 | 25 | 215 | 1.6 | 8.0 | 0.00 | 0.00 | 0.00 | 43 | 1012.2 |
| 20260509192403 | 25 | 215 | 1.6 | 8.0 | 0.00 | 0.00 | 0.00 | 44 | 1012.3 |
| 20260509192154 | 25 | 222 | 3.2 | 8.0 | 0.00 | 0.00 | 0.00 | 44 | 1012.2 |
| 20260509191949 | 25 | 292 | 3.2 | 8.0 | 0.00 | 0.00 | 0.00 | 44 | 1012.2 |
| 20260509191739 | 25 | 215 | 1.6 | 8.0 | 0.00 | 0.00 | 0.00 | 43 | 1012.2 |
| 20260509191528 | 25 | 213 | 1.6 | 8.0 | 0.00 | 0.00 | 0.00 | 45 | 1012.3 |
| 20260509191322 | 25 | 219 | 1.6 | 8.0 | 0.00 | 0.00 | 0.00 | 45 | 1012.2 |
| 20260509191114 | 25 | 315 | 1.6 | 8.0 | 0.00 | 0.00 | 0.00 | 44 | 1012.2 |
| 20260509190726 | 25 | 213 | 1.6 | 11.3 | 0.00 | 0.00 | 0.00 | 45 | 1012.2 |
| 20260509190516 | 25 | 213 | 1.6 | 11.3 | 0.00 | 0.00 | 0.00 | 45 | 1012.2 |
| 20260509190307 | 25 | 213 | 1.6 | 11.3 | 0.00 | 0.00 | 0.00 | 46 | 1012.4 |
| 20260509190057 | 25 | 212 | 1.6 | 11.3 | 0.00 | 0.00 | 0.00 | 44 | 1012.4 |
| 20260509185852 | 24 | 213 | 1.6 | 11.3 | 0.00 | 0.00 | 0.00 | 45 | 1012.4 |
| 20260509185643 | 24 | 200 | 1.6 | 11.3 | 0.00 | 0.00 | 0.00 | 44 | 1012.3 |
| 20260509185430 | 25 | 213 | 1.6 | 11.3 | 0.00 | 0.00 | 0.00 | 45 | 1012.4 |
| 20260509185223 | 25 | 231 | 3.2 | 11.3 | 0.00 | 0.00 | 0.00 | 44 | 1012.3 |
| 20260509185017 | 25 | 273 | 1.6 | 11.3 | 0.00 | 0.00 | 0.00 | 43 | 1012.4 |
| 20260509184810 | 25 | 288 | 1.6 | 11.3 | 0.00 | 0.00 | 0.00 | 43 | 1012.4 |
| 20260509184602 | 25 | 306 | 1.6 | 9.7 | 0.00 | 0.00 | 0.00 | 44 | 1012.4 |
| 20260509184350 | 25 | 279 | 0.0 | 9.7 | 0.00 | 0.00 | 0.00 | 44 | 1012.4 |